Wolf Point, MT

6:05 PM MDT on May 25, 2017 (GMT -0600)
Clayton

Weather History for KOLF - December, 2012

Change the Weather History Date:

Thursday, December 20, 2012

  Actual Average Record
Temperature  
Mean Temperature 2 °F -  
Max Temperature 13 °F 25 °F 46 °F (2014)
Min Temperature -10 °F 2 °F -18 °F (2008)
Degree Days  
Heating Degree Days 63    
Cooling Degree Days 0    
Moisture  
Dew Point -6 °F    
Average Humidity 76    
Maximum Humidity 84    
Minimum Humidity 65    
Precipitation  
Precipitation 0.00 in 0.01 in 0.09 in (2010)
Month to date precipitation 0.04 0.18  
Year to date precipitation 10.19 12.06  
Sea Level Pressure  
Sea Level Pressure 30.14 in    
Wind  
Wind Speed 2 mph (ENE)    
Max Wind Speed 9 mph    
Max Gust Speed -    
Visibility 8 miles    
Events      
T = Trace of Precipitation, MM = Missing Value Source: NWS Daily Summary

Daily Weather History Graph

Daily Weather History Graph

Search for Another Location

Airport or City:

Trip Planner

Search our weather history database for the weather conditions in past years. The results will help you decide how hot, cold, wet, or windy it might be!

Date:

Astronomy

Dec. 20, 2012 Rise Set
Actual Time 7:49 AM MST 4:10 PM MST
Civil Twilight 7:12 AM MST 4:47 PM MST
Nautical Twilight 6:33 AM MST 5:27 PM MST
Astronomical Twilight 5:55 AM MST 6:05 PM MST
Moon 11:52 AM MST (12/20) 12:14 AM MST (12/20)
Length of Visible Light 9h 34m
Length of Day
8h 21m
First Quarter, 56% of the Moon is Illuminated
Dec 20
First Quarter
Dec 28
Full
Jan 4
Last Quarter
Jan 11
New
Jan 18
First Quarter

Hourly Weather History & Observations

Time (MST) Temp. Windchill Dew Point Humidity Pressure Visibility Wind Dir Wind Speed Gust Speed Precip Events Conditions
12:26 AM -5.8 °F - -11.2 °F 77% 30.05 in 1.0 mi Calm Calm - N/A   Haze
12:32 AM -7.6 °F - -13.0 °F 77% 30.05 in 2.0 mi Calm Calm - N/A   Haze
12:42 AM -7.6 °F - -13.0 °F 77% 30.05 in 3.0 mi Calm Calm - N/A   Haze
12:53 AM -6.0 °F - -11.9 °F 75% 30.20 in 5.0 mi Calm Calm - N/A   Haze
1:53 AM -9.0 °F -18.2 °F -15.0 °F 75% 30.19 in 8.0 mi ENE 3.5 mph - N/A   Clear
2:14 AM -9.4 °F -20.9 °F -14.8 °F 77% 30.04 in 7.0 mi ENE 4.6 mph - N/A   Partly Cloudy
2:53 AM -9.0 °F -18.2 °F -15.0 °F 75% 30.19 in 8.0 mi East 3.5 mph - N/A   Clear
3:53 AM -9.0 °F - -15.0 °F 75% 30.20 in 7.0 mi Calm Calm - N/A   Clear
4:24 AM -7.6 °F - -16.6 °F 65% 30.04 in 9.0 mi Calm Calm - N/A   Partly Cloudy
4:53 AM -8.0 °F - -15.0 °F 71% 30.20 in 8.0 mi Calm Calm - N/A   Partly Cloudy
5:15 AM -7.6 °F -16.5 °F -14.8 °F 71% 30.01 in 8.0 mi NE 3.5 mph - N/A   Mostly Cloudy
5:41 AM -7.6 °F -18.8 °F -14.8 °F 71% 30.01 in 8.0 mi East 4.6 mph - N/A   Scattered Clouds
5:53 AM -7.1 °F -15.9 °F -13.0 °F 75% 30.19 in 8.0 mi East 3.5 mph - N/A   Clear
6:53 AM -6.0 °F - -13.0 °F 72% 30.20 in 9.0 mi Calm Calm - N/A   Partly Cloudy
7:53 AM -4.0 °F - -9.9 °F 76% 30.21 in 6.0 mi Calm Calm - N/A   Haze
8:53 AM -0.0 °F -7.9 °F -6.0 °F 76% 30.20 in 7.0 mi ESE 3.5 mph - N/A   Clear
9:53 AM 3.9 °F -3.4 °F -4.0 °F 70% 30.21 in 7.0 mi NNE 3.5 mph - N/A   Clear
10:53 AM 6.1 °F - 1.0 °F 80% 30.20 in 8.0 mi Calm Calm - N/A   Clear
11:53 AM 9.0 °F 2.4 °F 1.9 °F 73% 30.18 in 10.0 mi ENE 3.5 mph - N/A   Clear
12:53 PM 10.0 °F 3.6 °F 3.0 °F 73% 30.16 in 10.0 mi East 3.5 mph - N/A   Clear
1:53 PM 12.9 °F 5.2 °F 5.0 °F 71% 30.15 in 10.0 mi ENE 4.6 mph - N/A   Clear
2:53 PM 12.9 °F 5.2 °F 6.1 °F 74% 30.15 in 9.0 mi East 4.6 mph - N/A   Clear
3:53 PM 9.0 °F -0.9 °F 3.0 °F 77% 30.15 in 10.0 mi ENE 5.8 mph - N/A   Clear
4:53 PM 5.0 °F -5.6 °F 1.0 °F 84% 30.16 in 10.0 mi ENE 5.8 mph - N/A   Clear
5:53 PM 3.9 °F -8.2 °F -0.0 °F 84% 30.14 in 10.0 mi ENE 6.9 mph - N/A   Clear
6:53 PM 5.0 °F -6.9 °F -0.0 °F 80% 30.14 in 10.0 mi East 6.9 mph - N/A   Clear
7:53 PM 3.0 °F -11.5 °F -0.9 °F 84% 30.13 in 10.0 mi East 9.2 mph - N/A   Clear
8:53 PM 1.9 °F -11.8 °F -2.0 °F 83% 30.12 in 10.0 mi ENE 8.1 mph - N/A   Clear
9:53 PM 3.0 °F -9.3 °F -0.9 °F 84% 30.11 in 10.0 mi East 6.9 mph - N/A   Clear
10:53 PM 3.9 °F -8.2 °F -0.0 °F 84% 30.10 in 10.0 mi East 6.9 mph - N/A   Clear
11:53 PM 6.1 °F -6.8 °F 1.9 °F 83% 30.09 in 10.0 mi East 8.1 mph - N/A   Clear